sat.trackr.live / text

‹ back to catalog

STARLINK-5536

NORAD 57062 · 2023-088Q

PAYLOAD ACTIVE UNKNOWN

§ Identity

Operator
Country
US
Launch date
2023-06-22
Launch site
AFWTR
Launch vehicle
Mass (kg)
RCS (m²)

Purposes: comms

External: N2YO · Heavens-Above · Gunter

§ Orbital elements

Epoch: 2026-09-20T21:23:46.674816Z

Period
94.27 min
Inclination
43.0016°
Eccentricity
0.0001698
Mean motion
15.27576714 rev/d
Perigee alt
481.9 km
Apogee alt
484.2 km
Semi-major
6,861.2 km
B*
5.3675e-6
RAAN
73.7350°
Arg perigee
255.2186°
Mean anomaly
104.8478°
Rev number
18,035

§ Raw data

STARLINK-55361 57062U 23088Q   26263.89151244 -.00000115  00000+0  53675-5 0  99922 57062  43.0016  73.7350 0001698 255.2186 104.8478 15.27576714180358

JSON: /api/v1/satellites/57062 · /tle

For live sub-satellite position, see the globe view (requires WebGL).

§ Visibility from observer

Set your observer location to see the next 7 days of passes ≥ 10°. The values pass through the URL so the page stays shareable.

No JS? Fill the form by hand. The geolocation button needs JavaScript.